NRO208 LEPA-EBBR

Flight info

Callsign NRO208
Flight time N/A
Altitude 34000
Route GALAT RODRA/N0460F360 N861 OLOXO OKABI TOU ADABI BOKNO UN858 VANAD UN874 BAMES UT191 PODEM UN873 BAZOS BELDI VEKIN/N0452F260 Z173 ARVOL
Aircraft T154/M-SDGRWY/S

Departure

Time N/A
Airport Palma de Mallorca Airport (LEPA)

Arrival

Time 2026-05-06 16:29
Airport Brussels Airport (EBBR)
Time Latitude Longitude Altitude Speed Heading
2026-05-06 14:22 38.87479 1.37099 32 ft 0 kts 330°
2026-05-06 14:31 38.87479 1.37098 32 ft 0 kts 330°
2026-05-06 14:31 38.87489 1.37092 32 ft 5 kts 330°
2026-05-06 14:31 38.87527 1.37052 32 ft 8 kts 289°
2026-05-06 14:31 38.87508 1.36963 32 ft 12 kts 230°
2026-05-06 14:32 38.87428 1.36959 32 ft 12 kts 142°
2026-05-06 14:32 38.87351 1.36987 32 ft 11 kts 210°
2026-05-06 14:32 38.87302 1.36900 32 ft 12 kts 239°
2026-05-06 14:32 38.87257 1.36795 32 ft 14 kts 243°
2026-05-06 14:33 38.87209 1.36674 32 ft 17 kts 242°
2026-05-06 14:33 38.87130 1.36485 32 ft 30 kts 241°
2026-05-06 14:33 38.87024 1.36236 32 ft 32 kts 242°
2026-05-06 14:33 38.86923 1.35979 32 ft 28 kts 242°
2026-05-06 14:34 38.86854 1.35824 32 ft 8 kts 212°
2026-05-06 14:34 38.86800 1.35834 32 ft 8 kts 162°
2026-05-06 14:34 38.86729 1.35879 32 ft 14 kts 146°
2026-05-06 14:34 38.86713 1.35924 32 ft 0 kts 64°
2026-05-06 14:36 38.86721 1.35945 32 ft 22 kts 64°
2026-05-06 14:36 38.86941 1.36483 32 ft 112 kts 61°
2026-05-06 14:36 38.87426 1.37634 104 ft 172 kts 66°
2026-05-06 14:37 38.88069 1.39040 598 ft 196 kts 57°
2026-05-06 14:37 38.88965 1.40570 1108 ft 233 kts 51°
2026-05-06 14:37 38.89963 1.42224 2178 ft 245 kts 53°
2026-05-06 14:37 38.91004 1.44098 3056 ft 268 kts 56°
2026-05-06 14:38 38.92068 1.46125 4215 ft 280 kts 57°
2026-05-06 14:38 38.93205 1.48130 5470 ft 288 kts 43°
2026-05-06 14:38 38.94724 1.49741 6789 ft 291 kts 38°
2026-05-06 14:38 38.96332 1.51319 8032 ft 298 kts 30°
2026-05-06 14:39 38.98251 1.52324 9233 ft 303 kts 11°
2026-05-06 14:39 39.00336 1.52824 10522 ft 307 kts
2026-05-06 14:39 39.02420 1.53453 11670 ft 317 kts 13°
2026-05-06 14:39 39.04543 1.54281 12808 ft 326 kts 14°
2026-05-06 14:40 39.06752 1.55117 13835 ft 333 kts 12°
2026-05-06 14:40 39.09005 1.55897 14937 ft 339 kts 11°
2026-05-06 14:40 39.11271 1.56677 15966 ft 346 kts 11°
2026-05-06 14:40 39.13612 1.57501 16994 ft 353 kts 11°
2026-05-06 14:41 39.16018 1.58355 17993 ft 359 kts 11°
2026-05-06 14:41 39.18435 1.59210 18934 ft 366 kts 11°
2026-05-06 14:41 39.20892 1.60078 19861 ft 373 kts 11°
2026-05-06 14:41 39.23385 1.60961 20784 ft 378 kts 10°
2026-05-06 14:42 39.25973 1.61880 21687 ft 385 kts 10°
2026-05-06 14:42 39.28557 1.62797 22539 ft 391 kts 10°
2026-05-06 14:42 39.31179 1.63728 23394 ft 396 kts 10°
2026-05-06 14:42 39.33843 1.64676 24260 ft 401 kts 10°
2026-05-06 14:43 39.36539 1.65640 25056 ft 407 kts 11°
2026-05-06 14:43 39.39274 1.66638 25859 ft 411 kts 11°
2026-05-06 14:43 39.42051 1.67644 26615 ft 416 kts 10°
2026-05-06 14:43 39.44875 1.68652 27336 ft 421 kts 10°
2026-05-06 14:44 39.47700 1.69658 28049 ft 426 kts 10°
2026-05-06 14:44 39.50541 1.70675 28796 ft 430 kts
2026-05-06 14:44 39.53470 1.71724 29497 ft 435 kts
2026-05-06 14:45 39.59332 1.73822 30837 ft 443 kts
2026-05-06 14:45 39.62333 1.74898 31478 ft 448 kts
2026-05-06 14:45 39.65331 1.75974 32107 ft 452 kts
2026-05-06 14:45 39.68387 1.77072 32728 ft 455 kts
2026-05-06 14:46 39.71449 1.78172 33285 ft 460 kts
2026-05-06 14:46 39.74537 1.79283 33871 ft 464 kts
2026-05-06 14:46 39.77698 1.80419 34195 ft 475 kts
2026-05-06 14:46 39.80939 1.81579 34201 ft 492 kts
2026-05-06 14:47 39.84263 1.82774 34194 ft 508 kts
2026-05-06 14:47 39.87734 1.84030 34204 ft 523 kts 10°
2026-05-06 14:47 39.91319 1.85330 34198 ft 536 kts 10°
2026-05-06 14:47 39.94933 1.86641 34211 ft 548 kts 10°
2026-05-06 14:48 39.98632 1.87986 34201 ft 550 kts 10°
2026-05-06 14:48 40.02291 1.89330 34197 ft 534 kts 10°
2026-05-06 14:48 40.05799 1.90615 34168 ft 520 kts 10°
2026-05-06 14:49 40.12769 1.93131 34099 ft 524 kts 10°
2026-05-06 14:49 40.19883 1.94736 34071 ft 504 kts 349°
2026-05-06 14:49 40.23257 1.93924 34076 ft 487 kts 334°
2026-05-06 14:50 40.26365 1.92328 34132 ft 482 kts 330°
2026-05-06 14:50 40.29569 1.90934 34131 ft 493 kts 339°
2026-05-06 14:50 40.32955 1.90069 34141 ft 497 kts 343°
2026-05-06 14:51 40.39758 1.88515 34156 ft 494 kts 341°
2026-05-06 14:51 40.46531 1.86863 34163 ft 495 kts 342°
2026-05-06 14:52 40.53376 1.85271 34170 ft 495 kts 342°
2026-05-06 14:52 40.60127 1.83681 34171 ft 496 kts 342°
2026-05-06 14:53 40.66938 1.82081 34173 ft 497 kts 342°
2026-05-06 14:53 40.73738 1.80479 33973 ft 498 kts 342°
2026-05-06 14:53 40.77139 1.79680 33794 ft 489 kts 342°
2026-05-06 14:54 40.80487 1.78894 33973 ft 491 kts 342°
2026-05-06 14:54 40.83865 1.78081 33928 ft 503 kts 342°
2026-05-06 14:54 40.87339 1.77255 33918 ft 501 kts 343°
2026-05-06 14:55 40.94201 1.75643 33949 ft 501 kts 342°
2026-05-06 14:55 41.01062 1.74011 33928 ft 499 kts 343°
2026-05-06 14:56 41.07907 1.72478 33934 ft 503 kts 346°
2026-05-06 14:56 41.14895 1.71565 33891 ft 509 kts 347°
2026-05-06 14:57 41.21873 1.70485 33909 ft 505 kts 346°
2026-05-06 14:57 41.28896 1.69411 33930 ft 506 kts 347°
2026-05-06 14:58 41.35882 1.68320 33939 ft 507 kts 346°
2026-05-06 14:58 41.42912 1.67233 33943 ft 507 kts 347°
2026-05-06 14:59 41.49916 1.66144 33924 ft 505 kts 347°
2026-05-06 14:59 41.56884 1.65050 33923 ft 505 kts 347°
2026-05-06 15:00 41.63788 1.63966 33937 ft 504 kts 347°
2026-05-06 15:00 41.70728 1.62873 33922 ft 503 kts 347°
2026-05-06 15:01 41.77632 1.61782 33925 ft 505 kts 347°
2026-05-06 15:01 41.84582 1.60688 33926 ft 504 kts 347°
2026-05-06 15:02 41.91550 1.59587 33927 ft 504 kts 347°
2026-05-06 15:02 41.98490 1.58488 33919 ft 504 kts 347°
2026-05-06 15:03 42.05392 1.57394 33930 ft 503 kts 347°
2026-05-06 15:03 42.12309 1.56294 33891 ft 503 kts 347°
2026-05-06 15:04 42.19072 1.55228 33898 ft 503 kts 347°
2026-05-06 15:04 42.25835 1.54146 33919 ft 504 kts 347°
2026-05-06 15:05 42.32772 1.53038 33900 ft 505 kts 347°
2026-05-06 15:05 42.39741 1.51921 33934 ft 504 kts 347°
2026-05-06 15:06 42.46275 1.50869 33917 ft 503 kts 347°
2026-05-06 15:06 42.53208 1.49754 33956 ft 502 kts 347°
2026-05-06 15:07 42.60170 1.48631 33945 ft 503 kts 347°
2026-05-06 15:07 42.67129 1.47508 33948 ft 503 kts 348°
2026-05-06 15:08 42.74073 1.46396 33931 ft 501 kts 348°
2026-05-06 15:08 42.81040 1.45269 33941 ft 500 kts 348°
2026-05-06 15:09 42.87964 1.44151 33960 ft 501 kts 348°
2026-05-06 15:09 42.94929 1.43024 33956 ft 498 kts 348°
2026-05-06 15:10 43.01823 1.41903 33957 ft 500 kts 348°
2026-05-06 15:10 43.08724 1.40781 33960 ft 499 kts 348°
2026-05-06 15:11 43.15588 1.39667 33899 ft 498 kts 349°
2026-05-06 15:11 43.22493 1.38544 33942 ft 501 kts 348°
2026-05-06 15:12 43.29371 1.37417 33947 ft 500 kts 348°
2026-05-06 15:12 43.36270 1.36285 33946 ft 499 kts 349°
2026-05-06 15:13 43.43173 1.35149 33966 ft 498 kts 349°
2026-05-06 15:13 43.49977 1.33998 33954 ft 497 kts 348°
2026-05-06 15:14 43.56699 1.32871 33963 ft 498 kts 349°
2026-05-06 15:14 43.63624 1.31724 33963 ft 498 kts 349°
2026-05-06 15:15 43.70478 1.30507 33971 ft 496 kts 346°
2026-05-06 15:15 43.77261 1.28609 33953 ft 494 kts 345°
2026-05-06 15:16 43.84060 1.26872 33947 ft 495 kts 346°
2026-05-06 15:16 43.90807 1.25119 33927 ft 493 kts 346°
2026-05-06 15:17 43.97567 1.23366 33925 ft 493 kts 346°
2026-05-06 15:17 44.04307 1.21615 33927 ft 492 kts 346°
2026-05-06 15:18 44.11033 1.19863 33904 ft 491 kts 346°
2026-05-06 15:18 44.17782 1.18112 33887 ft 493 kts 347°
2026-05-06 15:19 44.24440 1.16372 33902 ft 492 kts 346°
2026-05-06 15:19 44.31315 1.14567 33928 ft 494 kts 347°
2026-05-06 15:20 44.38002 1.12812 33923 ft 489 kts 347°
2026-05-06 15:20 44.44644 1.11060 33893 ft 488 kts 347°
2026-05-06 15:21 44.51374 1.09280 33924 ft 489 kts 347°
2026-05-06 15:21 44.58025 1.07521 33905 ft 488 kts 347°
2026-05-06 15:22 44.64734 1.05740 33894 ft 482 kts 347°
2026-05-06 15:22 44.71390 1.03969 33929 ft 486 kts 347°
2026-05-06 15:23 44.78008 1.02205 33907 ft 483 kts 347°
2026-05-06 15:23 44.84643 1.00430 33946 ft 487 kts 348°
2026-05-06 15:24 44.91278 0.98654 33924 ft 483 kts 348°
2026-05-06 15:24 44.97900 0.96876 33918 ft 482 kts 348°
2026-05-06 15:25 45.04527 0.95092 33906 ft 480 kts 348°
2026-05-06 15:25 45.11131 0.93310 33925 ft 483 kts 348°
2026-05-06 15:26 45.17701 0.91546 33885 ft 482 kts 348°
2026-05-06 15:26 45.24311 0.89754 33910 ft 482 kts 348°
2026-05-06 15:27 45.30878 0.87970 33934 ft 484 kts 348°
2026-05-06 15:27 45.37439 0.86184 33912 ft 480 kts 348°
2026-05-06 15:28 45.44041 0.84381 33941 ft 482 kts 348°
2026-05-06 15:28 45.50694 0.82561 33936 ft 482 kts 348°
2026-05-06 15:29 45.57256 0.80761 33908 ft 478 kts 348°
2026-05-06 15:29 45.63809 0.78959 33900 ft 479 kts 348°
2026-05-06 15:30 45.70392 0.77145 33953 ft 480 kts 348°
2026-05-06 15:30 45.76921 0.75342 33945 ft 480 kts 349°
2026-05-06 15:31 45.83496 0.73521 33939 ft 479 kts 348°
2026-05-06 15:31 45.90033 0.71706 33907 ft 478 kts 348°
2026-05-06 15:32 45.99851 0.68973 33908 ft 476 kts 349°
2026-05-06 15:32 46.06377 0.67150 33948 ft 478 kts 349°
2026-05-06 15:33 46.12906 0.65325 33857 ft 476 kts 349°
2026-05-06 15:33 46.19402 0.63513 33884 ft 477 kts 349°
2026-05-06 15:34 46.25953 0.61669 33901 ft 477 kts 349°
2026-05-06 15:34 46.32468 0.59834 33945 ft 479 kts 349°
2026-05-06 15:35 46.38999 0.57987 33948 ft 479 kts 349°
2026-05-06 15:35 46.45488 0.56148 33915 ft 475 kts 349°
2026-05-06 15:36 46.52005 0.54297 33985 ft 478 kts 349°
2026-05-06 15:36 46.58509 0.52725 33916 ft 474 kts
2026-05-06 15:37 46.61779 0.53406 33928 ft 475 kts 17°
2026-05-06 15:37 46.64845 0.55178 33987 ft 479 kts 23°
2026-05-06 15:37 46.71184 0.58085 33953 ft 476 kts 11°
2026-05-06 15:38 46.77688 0.60162 33968 ft 478 kts 13°
2026-05-06 15:38 46.84145 0.62383 33960 ft 477 kts 12°
2026-05-06 15:39 46.90581 0.64505 33933 ft 475 kts 12°
2026-05-06 15:39 46.97065 0.66670 33925 ft 474 kts 12°
2026-05-06 15:40 47.03522 0.68823 33946 ft 477 kts 12°
2026-05-06 15:40 47.09991 0.70267 33925 ft 476 kts 359°
2026-05-06 15:41 47.16671 0.70384 33886 ft 478 kts
2026-05-06 15:41 47.23283 0.71186 33909 ft 477 kts
2026-05-06 15:42 47.29852 0.71820 33923 ft 476 kts
2026-05-06 15:42 47.36464 0.72525 33967 ft 478 kts
2026-05-06 15:43 47.43124 0.73221 33990 ft 478 kts
2026-05-06 15:43 47.49733 0.73892 33926 ft 475 kts
2026-05-06 15:44 47.52977 0.74622 33909 ft 477 kts 17°
2026-05-06 15:44 47.56072 0.76527 34011 ft 477 kts 25°
2026-05-06 15:44 47.62255 0.80185 33933 ft 473 kts 17°
2026-05-06 15:45 47.68543 0.83187 33941 ft 477 kts 19°
2026-05-06 15:45 47.74819 0.86357 33927 ft 478 kts 18°
2026-05-06 15:46 47.81098 0.89454 33941 ft 478 kts 18°
2026-05-06 15:46 47.87418 0.92613 33914 ft 473 kts 18°
2026-05-06 15:47 47.93688 0.95796 33903 ft 475 kts 18°
2026-05-06 15:47 47.99955 0.98967 33962 ft 479 kts 18°
2026-05-06 15:48 48.06214 1.02147 33893 ft 475 kts 18°
2026-05-06 15:48 48.12513 1.05350 33887 ft 478 kts 18°
2026-05-06 15:49 48.18786 1.08534 33889 ft 478 kts 18°
2026-05-06 15:49 48.25086 1.11755 33921 ft 477 kts 18°
2026-05-06 15:50 48.31336 1.14932 33937 ft 479 kts 18°
2026-05-06 15:50 48.37638 1.18155 33902 ft 479 kts 18°
2026-05-06 15:51 48.43993 1.21413 33932 ft 479 kts 18°
2026-05-06 15:51 48.50274 1.24640 33955 ft 481 kts 18°
2026-05-06 15:52 48.56543 1.27869 33935 ft 480 kts 18°
2026-05-06 15:52 48.62813 1.31012 33927 ft 477 kts 18°
2026-05-06 15:53 48.69194 1.34227 33952 ft 479 kts 18°
2026-05-06 15:53 48.75509 1.37423 33923 ft 478 kts 18°
2026-05-06 15:54 48.81788 1.40608 33933 ft 478 kts 18°
2026-05-06 15:54 48.88054 1.43797 33939 ft 480 kts 18°
2026-05-06 15:55 48.94288 1.46976 33937 ft 458 kts 18°
2026-05-06 15:55 48.97258 1.48503 33891 ft 447 kts 19°
2026-05-06 15:55 49.00210 1.49863 33895 ft 436 kts 10°
2026-05-06 15:56 49.03177 1.50326 33933 ft 423 kts
2026-05-06 15:56 49.06110 1.50621 33955 ft 427 kts
2026-05-06 15:56 49.11976 1.51994 33905 ft 427 kts
2026-05-06 15:57 49.17846 1.53356 33915 ft 429 kts
2026-05-06 15:57 49.23722 1.54736 33928 ft 428 kts
2026-05-06 15:58 49.29395 1.57274 33920 ft 423 kts 33°
2026-05-06 15:58 49.31620 1.60264 33944 ft 428 kts 50°
2026-05-06 15:58 49.33258 1.64019 33994 ft 427 kts 57°
2026-05-06 15:59 49.37026 1.71141 33947 ft 428 kts 43°
2026-05-06 15:59 49.41340 1.77430 33947 ft 431 kts 44°
2026-05-06 16:00 49.45617 1.83848 33936 ft 431 kts 43°
2026-05-06 16:00 49.49937 1.90201 33942 ft 432 kts 43°
2026-05-06 16:01 49.54285 1.96636 33946 ft 430 kts 43°
2026-05-06 16:01 49.58596 2.03023 33936 ft 431 kts 43°
2026-05-06 16:02 49.62894 2.09410 33919 ft 431 kts 43°
2026-05-06 16:02 49.67213 2.15843 33908 ft 430 kts 44°
2026-05-06 16:03 49.71504 2.22252 33915 ft 431 kts 44°
2026-05-06 16:03 49.75805 2.28693 33932 ft 431 kts 44°
2026-05-06 16:04 49.80102 2.35144 33918 ft 430 kts 44°
2026-05-06 16:04 49.84382 2.41586 33914 ft 431 kts 44°
2026-05-06 16:05 49.88659 2.48042 33941 ft 431 kts 44°
2026-05-06 16:05 49.92936 2.54512 33934 ft 431 kts 44°
2026-05-06 16:06 49.97236 2.61036 33927 ft 431 kts 44°
2026-05-06 16:06 50.01505 2.67539 33916 ft 433 kts 45°
2026-05-06 16:07 50.05801 2.74130 33923 ft 434 kts 45°
2026-05-06 16:07 50.10075 2.80666 33927 ft 433 kts 45°
2026-05-06 16:08 50.14393 2.87237 33883 ft 433 kts 44°
2026-05-06 16:08 50.18704 2.93854 33902 ft 434 kts 45°
2026-05-06 16:09 50.22971 3.00432 33910 ft 434 kts 45°
2026-05-06 16:09 50.27274 3.07084 33915 ft 434 kts 45°
2026-05-06 16:10 50.31539 3.13694 33393 ft 430 kts 44°
2026-05-06 16:10 50.33646 3.16968 32837 ft 428 kts 44°
2026-05-06 16:10 50.35738 3.20223 32311 ft 425 kts 44°
2026-05-06 16:11 50.37836 3.23490 31720 ft 423 kts 44°
2026-05-06 16:11 50.39905 3.26716 31153 ft 421 kts 44°
2026-05-06 16:11 50.41948 3.29907 30582 ft 417 kts 44°
2026-05-06 16:11 50.44002 3.33115 30011 ft 413 kts 44°
2026-05-06 16:12 50.46003 3.36243 29479 ft 408 kts 44°
2026-05-06 16:12 50.48003 3.39375 28936 ft 404 kts 44°
2026-05-06 16:12 50.49978 3.42471 28377 ft 400 kts 44°
2026-05-06 16:12 50.51928 3.45533 27801 ft 396 kts 44°
2026-05-06 16:13 50.53858 3.48567 27149 ft 395 kts 44°
2026-05-06 16:13 50.55812 3.51633 26476 ft 392 kts 40°
2026-05-06 16:13 50.58004 3.54076 25777 ft 390 kts 28°
2026-05-06 16:13 50.60377 3.56172 25100 ft 388 kts 30°
2026-05-06 16:14 50.62647 3.58481 24432 ft 385 kts 34°
2026-05-06 16:14 50.64808 3.60936 23773 ft 382 kts 35°
2026-05-06 16:14 50.66965 3.63349 23124 ft 379 kts 34°
2026-05-06 16:14 50.69093 3.65665 22479 ft 376 kts 34°
2026-05-06 16:15 50.71224 3.68012 21783 ft 374 kts 35°
2026-05-06 16:15 50.73347 3.70383 21093 ft 371 kts 35°
2026-05-06 16:15 50.75439 3.72708 20407 ft 367 kts 34°
2026-05-06 16:15 50.77520 3.75009 19728 ft 363 kts 34°
2026-05-06 16:16 50.79583 3.77284 19032 ft 359 kts 34°
2026-05-06 16:16 50.81589 3.79526 18334 ft 355 kts 34°
2026-05-06 16:16 50.83601 3.81774 17624 ft 351 kts 34°
2026-05-06 16:16 50.85568 3.83965 16901 ft 347 kts 34°
2026-05-06 16:17 50.87557 3.86130 16186 ft 343 kts 32°
2026-05-06 16:17 50.89302 3.88658 15424 ft 341 kts 54°
2026-05-06 16:17 50.90330 3.91987 14704 ft 338 kts 70°
2026-05-06 16:17 50.91292 3.95339 14050 ft 330 kts 56°
2026-05-06 16:18 50.92541 3.98338 13375 ft 325 kts 57°
2026-05-06 16:18 50.93361 4.01596 12649 ft 324 kts 79°
2026-05-06 16:18 50.93711 4.05103 11987 ft 317 kts 75°
2026-05-06 16:18 50.94367 4.08341 11365 ft 311 kts 67°
2026-05-06 16:19 50.95148 4.11529 10734 ft 306 kts 69°
2026-05-06 16:19 50.95850 4.14665 10107 ft 301 kts 68°
2026-05-06 16:19 50.96576 4.17716 9487 ft 297 kts 67°
2026-05-06 16:19 50.97297 4.20744 8860 ft 292 kts 68°
2026-05-06 16:20 50.97993 4.23733 8239 ft 288 kts 67°
2026-05-06 16:20 50.98695 4.26672 7886 ft 272 kts 67°
2026-05-06 16:20 50.99323 4.29352 7737 ft 254 kts 67°
2026-05-06 16:20 50.99946 4.31982 7226 ft 256 kts 67°
2026-05-06 16:21 51.00573 4.34631 6744 ft 256 kts 67°
2026-05-06 16:21 51.01115 4.37327 6267 ft 257 kts 71°
2026-05-06 16:21 51.01598 4.40037 5802 ft 256 kts 71°
2026-05-06 16:21 51.02066 4.42723 5350 ft 254 kts 72°
2026-05-06 16:22 51.02530 4.45407 4912 ft 252 kts 71°
2026-05-06 16:22 51.02993 4.48065 4483 ft 250 kts 71°
2026-05-06 16:22 51.03454 4.50742 4050 ft 248 kts 71°
2026-05-06 16:22 51.03905 4.53385 3623 ft 247 kts 71°
2026-05-06 16:23 51.04347 4.55982 3207 ft 245 kts 71°
2026-05-06 16:23 51.04784 4.58570 2797 ft 242 kts 71°
2026-05-06 16:23 51.05221 4.61149 2387 ft 240 kts 72°
2026-05-06 16:23 51.05252 4.63764 2004 ft 242 kts 104°
2026-05-06 16:24 51.04385 4.65932 1971 ft 229 kts 136°
2026-05-06 16:24 51.03117 4.67400 1975 ft 236 kts 143°
2026-05-06 16:24 51.01788 4.68795 1967 ft 232 kts 143°
2026-05-06 16:24 51.00469 4.70164 1960 ft 218 kts 143°
2026-05-06 16:25 50.99282 4.71395 1940 ft 222 kts 143°
2026-05-06 16:25 50.97870 4.72383 1917 ft 228 kts 172°
2026-05-06 16:25 50.96321 4.71990 1977 ft 229 kts 207°
2026-05-06 16:25 50.94981 4.70786 2009 ft 212 kts 212°
2026-05-06 16:26 50.93786 4.69606 1863 ft 198 kts 214°
2026-05-06 16:26 50.92919 4.67958 1735 ft 188 kts 254°
2026-05-06 16:26 50.92684 4.66090 1839 ft 171 kts 265°
2026-05-06 16:26 50.92442 4.64210 2069 ft 172 kts 263°
2026-05-06 16:27 50.92133 4.62351 2092 ft 178 kts 257°
2026-05-06 16:27 50.91746 4.60496 1802 ft 178 kts 256°
2026-05-06 16:27 50.91342 4.58678 1402 ft 170 kts 254°
2026-05-06 16:27 50.90970 4.57023 985 ft 154 kts 254°
2026-05-06 16:28 50.90597 4.55403 689 ft 153 kts 254°
2026-05-06 16:28 50.90238 4.53826 444 ft 152 kts 253°
2026-05-06 16:28 50.89896 4.52342 250 ft 141 kts 253°
2026-05-06 16:28 50.89583 4.50985 197 ft 113 kts 253°
2026-05-06 16:29 50.89403 4.50152 197 ft 47 kts 248°
2026-05-06 16:29 50.89331 4.49778 197 ft 24 kts 290°
2026-05-06 16:29 50.89382 4.49655 197 ft 7 kts 313°
2026-05-06 16:29 50.89423 4.49577 197 ft 11 kts 308°
2026-05-06 16:30 50.89479 4.49448 197 ft 16 kts 305°
2026-05-06 16:30 50.89517 4.49362 196 ft 10 kts 307°
2026-05-06 16:30 50.89554 4.49285 196 ft 0 kts 308°
2026-05-06 16:31 50.89571 4.49259 197 ft 7 kts 333°
2026-05-06 16:31 50.89637 4.49259 196 ft 11 kts 14°
2026-05-06 16:31 50.89720 4.49293 197 ft 13 kts 15°
2026-05-06 16:31 50.89820 4.49335 197 ft 16 kts 15°
2026-05-06 16:32 50.89937 4.49384 197 ft 18 kts 14°
2026-05-06 16:32 50.90073 4.49437 196 ft 21 kts 14°
2026-05-06 16:32 50.90220 4.49494 196 ft 23 kts 14°
2026-05-06 16:32 50.90383 4.49562 197 ft 24 kts 15°
2026-05-06 16:33 50.90458 4.49534 196 ft 7 kts 272°
2026-05-06 16:33 50.90444 4.49469 196 ft 7 kts 249°
2026-05-06 16:33 50.90421 4.49379 196 ft 10 kts 249°
2026-05-06 16:34 50.90344 4.49116 197 ft 16 kts 245°
2026-05-06 16:34 50.90292 4.48945 197 ft 16 kts 245°
2026-05-06 16:34 50.90248 4.48793 197 ft 9 kts 246°
2026-05-06 16:34 50.90265 4.48722 197 ft 8 kts 330°
2026-05-06 16:35 50.90302 4.48693 196 ft 4 kts 336°
2026-05-06 16:35 50.90306 4.48690 197 ft 0 kts 336°